BAW26P EDDF-EGKK

Flight info

Callsign BAW26P
Flight time 1h 1m
Altitude 34000
Route SOBRA2L/18 SOBRA Y180 DIK UN857 TOLVU/N0470F350 DCT RAPOR DCT ENORI/N0469F340 DCT KUNAV
Aircraft B77W/H-SDE1E2E3FGHIJ2J3J4J5M1RWXY/LB1D1

Departure

Time 2026-04-14 14:47
Airport Frankfurt Main Airport (EDDF)

Arrival

Time 2026-04-14 15:48
Airport London Gatwick Airport (EGKK)
Time Latitude Longitude Altitude Speed Heading
2026-04-14 14:35 50.03854 8.54689 363 ft 0 kts 160°
2026-04-14 14:42 50.03852 8.54690 353 ft 2 kts 160°
2026-04-14 14:42 50.03828 8.54704 357 ft 6 kts 160°
2026-04-14 14:42 50.03774 8.54705 358 ft 9 kts 204°
2026-04-14 14:43 50.03744 8.54653 361 ft 5 kts 240°
2026-04-14 14:43 50.03721 8.54577 361 ft 10 kts 248°
2026-04-14 14:43 50.03707 8.54520 362 ft 1 kts 249°
2026-04-14 14:43 50.03698 8.54484 357 ft 6 kts 249°
2026-04-14 14:44 50.03669 8.54364 363 ft 18 kts 250°
2026-04-14 14:44 50.03610 8.54113 356 ft 31 kts 250°
2026-04-14 14:44 50.03525 8.53759 355 ft 30 kts 249°
2026-04-14 14:44 50.03445 8.53432 334 ft 36 kts 249°
2026-04-14 14:45 50.03358 8.53066 352 ft 33 kts 250°
2026-04-14 14:45 50.03320 8.52906 355 ft 13 kts 250°
2026-04-14 14:45 50.03295 8.52798 356 ft 7 kts 250°
2026-04-14 14:45 50.03265 8.52668 353 ft 17 kts 252°
2026-04-14 14:46 50.03214 8.52602 361 ft 8 kts 190°
2026-04-14 14:46 50.03198 8.52600 359 ft 0 kts 184°
2026-04-14 14:46 50.03196 8.52600 359 ft 3 kts 184°
2026-04-14 14:47 50.02908 8.52599 357 ft 102 kts 179°
2026-04-14 14:47 50.01805 8.52605 652 ft 198 kts 179°
2026-04-14 14:47 50.00362 8.52597 2168 ft 212 kts 181°
2026-04-14 14:47 49.98868 8.52625 3503 ft 224 kts 177°
2026-04-14 14:48 49.97230 8.52755 3966 ft 239 kts 176°
2026-04-14 14:48 49.95570 8.52903 4190 ft 239 kts 176°
2026-04-14 14:48 49.93889 8.53040 4156 ft 242 kts 176°
2026-04-14 14:48 49.92205 8.53166 4192 ft 243 kts 177°
2026-04-14 14:49 49.90516 8.53284 4181 ft 242 kts 177°
2026-04-14 14:49 49.88848 8.53396 4178 ft 239 kts 177°
2026-04-14 14:49 49.87184 8.53191 4232 ft 254 kts 202°
2026-04-14 14:49 49.85801 8.51399 4972 ft 269 kts 241°
2026-04-14 14:50 49.85281 8.48624 6039 ft 270 kts 269°
2026-04-14 14:50 49.85280 8.45691 7037 ft 277 kts 273°
2026-04-14 14:50 49.85333 8.42707 8245 ft 277 kts 273°
2026-04-14 14:50 49.85394 8.39727 9478 ft 277 kts 271°
2026-04-14 14:51 49.85452 8.36721 10577 ft 283 kts 271°
2026-04-14 14:51 49.85507 8.33585 11270 ft 303 kts 271°
2026-04-14 14:51 49.85561 8.30158 11598 ft 334 kts 271°
2026-04-14 14:51 49.85614 8.26402 12092 ft 358 kts 270°
2026-04-14 14:52 49.85664 8.22498 13130 ft 366 kts 271°
2026-04-14 14:52 49.85713 8.18512 14166 ft 374 kts 271°
2026-04-14 14:52 49.85760 8.14442 15148 ft 380 kts 271°
2026-04-14 14:52 49.85804 8.10320 16164 ft 386 kts 271°
2026-04-14 14:53 49.85848 8.06117 17102 ft 394 kts 272°
2026-04-14 14:53 49.85891 8.01825 18077 ft 401 kts 272°
2026-04-14 14:53 49.85932 7.97478 19006 ft 406 kts 272°
2026-04-14 14:53 49.85972 7.93080 19924 ft 410 kts 272°
2026-04-14 14:54 49.86012 7.88635 20854 ft 414 kts 272°
2026-04-14 14:54 49.86049 7.84150 21727 ft 419 kts 272°
2026-04-14 14:54 49.86129 7.79615 22572 ft 423 kts 275°
2026-04-14 14:54 49.86473 7.75064 23424 ft 427 kts 281°
2026-04-14 14:55 49.87133 7.70555 24183 ft 431 kts 285°
2026-04-14 14:55 49.87861 7.66030 24899 ft 435 kts 285°
2026-04-14 14:55 49.88589 7.61456 25602 ft 438 kts 285°
2026-04-14 14:55 49.89302 7.56905 26273 ft 442 kts 285°
2026-04-14 14:56 49.90512 7.49072 27355 ft 449 kts 285°
2026-04-14 14:56 49.91470 7.42789 28186 ft 455 kts 285°
2026-04-14 14:56 49.92207 7.37927 28792 ft 459 kts 285°
2026-04-14 14:57 49.92929 7.33157 29372 ft 462 kts 285°
2026-04-14 14:57 49.93664 7.28287 29932 ft 465 kts 286°
2026-04-14 14:57 49.94400 7.23386 30422 ft 468 kts 286°
2026-04-14 14:57 49.95139 7.18455 30949 ft 468 kts 286°
2026-04-14 14:58 49.95869 7.13560 31636 ft 464 kts 286°
2026-04-14 14:58 49.96358 7.10272 32122 ft 460 kts 286°
2026-04-14 14:58 49.97307 7.03891 32998 ft 456 kts 287°
2026-04-14 14:58 49.98024 6.99066 33211 ft 461 kts 287°
2026-04-14 14:59 49.99078 6.89238 33182 ft 461 kts 278°
2026-04-14 14:59 49.99040 6.79250 33190 ft 465 kts 271°
2026-04-14 15:00 49.98742 6.70915 33183 ft 465 kts 271°
2026-04-14 15:00 49.98334 6.60861 33175 ft 469 kts 267°
2026-04-14 15:01 49.96813 6.50934 33187 ft 476 kts 256°
2026-04-14 15:01 49.94229 6.41392 33181 ft 481 kts 251°
2026-04-14 15:02 49.91501 6.31911 33170 ft 480 kts 251°
2026-04-14 15:02 49.88790 6.22429 33185 ft 481 kts 250°
2026-04-14 15:03 49.85955 6.13035 33180 ft 484 kts 247°
2026-04-14 15:03 49.82214 6.04279 33180 ft 490 kts 239°
2026-04-14 15:04 49.78211 5.95760 33184 ft 490 kts 240°
2026-04-14 15:04 49.74516 5.86963 33173 ft 485 kts 247°
2026-04-14 15:05 49.71882 5.77482 33180 ft 477 kts 256°
2026-04-14 15:05 49.69683 5.67799 33171 ft 478 kts 256°
2026-04-14 15:06 49.67445 5.58128 33176 ft 478 kts 256°
2026-04-14 15:06 49.65174 5.48493 33177 ft 478 kts 256°
2026-04-14 15:07 49.62897 5.38875 33185 ft 477 kts 256°
2026-04-14 15:07 49.60753 5.29213 33185 ft 475 kts 258°
2026-04-14 15:08 49.58977 5.19490 33195 ft 470 kts 264°
2026-04-14 15:08 49.58146 5.09595 33191 ft 465 kts 269°
2026-04-14 15:09 49.57440 4.99686 33187 ft 465 kts 269°
2026-04-14 15:09 49.56707 4.89850 33193 ft 465 kts 269°
2026-04-14 15:10 49.55944 4.79975 33188 ft 465 kts 269°
2026-04-14 15:10 49.55165 4.70089 33198 ft 464 kts 269°
2026-04-14 15:11 49.54381 4.60225 33197 ft 464 kts 269°
2026-04-14 15:11 49.53591 4.50382 33205 ft 463 kts 269°
2026-04-14 15:12 49.52791 4.40537 33199 ft 463 kts 269°
2026-04-14 15:12 49.51985 4.30709 33195 ft 463 kts 269°
2026-04-14 15:13 49.51172 4.20891 33197 ft 463 kts 269°
2026-04-14 15:13 49.50348 4.11067 33194 ft 463 kts 269°
2026-04-14 15:14 49.49519 4.01258 33195 ft 463 kts 269°
2026-04-14 15:14 49.48682 3.91447 33184 ft 463 kts 269°
2026-04-14 15:15 49.48111 3.81662 33184 ft 451 kts 281°
2026-04-14 15:15 49.49628 3.72512 33195 ft 438 kts 299°
2026-04-14 15:16 49.52694 3.64559 33189 ft 433 kts 307°
2026-04-14 15:16 49.55917 3.56719 33187 ft 434 kts 306°
2026-04-14 15:17 49.59099 3.48867 33186 ft 435 kts 306°
2026-04-14 15:17 49.62273 3.40935 33179 ft 434 kts 306°
2026-04-14 15:18 49.65429 3.32996 33177 ft 434 kts 306°
2026-04-14 15:18 49.68570 3.25066 33190 ft 433 kts 306°
2026-04-14 15:19 49.71704 3.17133 33188 ft 432 kts 306°
2026-04-14 15:19 49.74827 3.09205 33184 ft 432 kts 306°
2026-04-14 15:20 49.77947 3.01263 33179 ft 431 kts 306°
2026-04-14 15:20 49.81057 2.93321 33181 ft 431 kts 306°
2026-04-14 15:21 49.84161 2.85370 33184 ft 432 kts 306°
2026-04-14 15:21 49.87264 2.77398 33183 ft 432 kts 306°
2026-04-14 15:22 49.90362 2.69414 33182 ft 432 kts 306°
2026-04-14 15:22 49.93457 2.61412 33179 ft 432 kts 306°
2026-04-14 15:23 49.96547 2.53400 33181 ft 433 kts 305°
2026-04-14 15:23 49.99632 2.45375 33183 ft 433 kts 305°
2026-04-14 15:24 50.02713 2.37336 33179 ft 433 kts 305°
2026-04-14 15:24 50.05790 2.29284 33178 ft 433 kts 305°
2026-04-14 15:25 50.08854 2.21238 33175 ft 432 kts 304°
2026-04-14 15:25 50.11898 2.13225 33176 ft 432 kts 304°
2026-04-14 15:26 50.14949 2.05164 33170 ft 432 kts 304°
2026-04-14 15:26 50.18012 1.97046 33172 ft 431 kts 304°
2026-04-14 15:27 50.21029 1.89027 33167 ft 429 kts 304°
2026-04-14 15:27 50.22525 1.85038 32686 ft 427 kts 304°
2026-04-14 15:27 50.24017 1.81055 32071 ft 422 kts 304°
2026-04-14 15:28 50.25492 1.77110 31503 ft 418 kts 303°
2026-04-14 15:28 50.26949 1.73210 30924 ft 414 kts 303°
2026-04-14 15:28 50.28393 1.69338 30362 ft 411 kts 303°
2026-04-14 15:28 50.29825 1.65497 29727 ft 407 kts 303°
2026-04-14 15:29 50.31241 1.61690 29104 ft 403 kts 303°
2026-04-14 15:29 50.32642 1.57919 28545 ft 398 kts 303°
2026-04-14 15:29 50.34022 1.54197 27981 ft 394 kts 303°
2026-04-14 15:29 50.35389 1.50505 27431 ft 390 kts 302°
2026-04-14 15:30 50.36742 1.46846 26882 ft 387 kts 302°
2026-04-14 15:30 50.38082 1.43220 26355 ft 383 kts 302°
2026-04-14 15:30 50.39413 1.39613 25826 ft 381 kts 302°
2026-04-14 15:30 50.40730 1.36035 25309 ft 378 kts 302°
2026-04-14 15:31 50.42041 1.32473 24793 ft 376 kts 301°
2026-04-14 15:31 50.43341 1.28933 24278 ft 374 kts 301°
2026-04-14 15:31 50.44636 1.25402 23761 ft 373 kts 301°
2026-04-14 15:31 50.45926 1.21880 23158 ft 371 kts 301°
2026-04-14 15:32 50.47208 1.18375 22619 ft 369 kts 301°
2026-04-14 15:32 50.48478 1.14898 22091 ft 366 kts 300°
2026-04-14 15:32 50.49739 1.11442 21599 ft 364 kts 300°
2026-04-14 15:32 50.50993 1.08001 21094 ft 361 kts 300°
2026-04-14 15:33 50.52405 1.04759 20582 ft 359 kts 310°
2026-04-14 15:33 50.54099 1.01885 20118 ft 358 kts 313°
2026-04-14 15:33 50.55834 0.99083 19612 ft 357 kts 313°
2026-04-14 15:33 50.57558 0.96281 19127 ft 356 kts 313°
2026-04-14 15:34 50.59247 0.93491 18635 ft 356 kts 312°
2026-04-14 15:34 50.60945 0.90646 18100 ft 357 kts 311°
2026-04-14 15:34 50.62635 0.87792 17546 ft 356 kts 311°
2026-04-14 15:34 50.64317 0.84942 17040 ft 355 kts 311°
2026-04-14 15:35 50.65993 0.82093 16535 ft 353 kts 311°
2026-04-14 15:35 50.67656 0.79252 16036 ft 352 kts 310°
2026-04-14 15:35 50.69231 0.76311 15557 ft 350 kts 307°
2026-04-14 15:35 50.70748 0.73313 15054 ft 349 kts 306°
2026-04-14 15:36 50.72251 0.70310 14571 ft 348 kts 306°
2026-04-14 15:36 50.73754 0.67320 14074 ft 348 kts 306°
2026-04-14 15:36 50.75260 0.64338 13539 ft 347 kts 306°
2026-04-14 15:36 50.76746 0.61408 12997 ft 346 kts 306°
2026-04-14 15:37 50.78247 0.58453 12513 ft 344 kts 307°
2026-04-14 15:37 50.79740 0.55516 12057 ft 342 kts 306°
2026-04-14 15:37 50.81221 0.52598 11611 ft 339 kts 306°
2026-04-14 15:37 50.82692 0.49695 11161 ft 337 kts 306°
2026-04-14 15:38 50.84172 0.46773 10716 ft 335 kts 306°
2026-04-14 15:38 50.85609 0.43932 10246 ft 334 kts 306°
2026-04-14 15:38 50.87036 0.41110 10121 ft 322 kts 306°
2026-04-14 15:38 50.88408 0.38396 10026 ft 307 kts 306°
2026-04-14 15:39 50.89701 0.35835 9833 ft 289 kts 306°
2026-04-14 15:39 50.90930 0.33399 9509 ft 278 kts 306°
2026-04-14 15:39 50.92119 0.31035 9118 ft 270 kts 305°
2026-04-14 15:39 50.93266 0.28755 8816 ft 259 kts 305°
2026-04-14 15:40 50.94371 0.26564 8514 ft 250 kts 305°
2026-04-14 15:40 50.95206 0.24237 8082 ft 239 kts 279°
2026-04-14 15:40 50.95188 0.21702 7618 ft 228 kts 249°
2026-04-14 15:40 50.94456 0.19495 7144 ft 225 kts 241°
2026-04-14 15:41 50.94086 0.17108 6674 ft 228 kts 271°
2026-04-14 15:41 50.94615 0.14750 6180 ft 234 kts 303°
2026-04-14 15:41 50.95903 0.13131 5673 ft 244 kts 334°
2026-04-14 15:41 50.97571 0.12635 5192 ft 244 kts 353°
2026-04-14 15:42 50.99257 0.12497 4744 ft 245 kts 355°
2026-04-14 15:42 51.00981 0.12379 4486 ft 250 kts 355°
2026-04-14 15:42 51.02725 0.12257 4383 ft 250 kts 354°
2026-04-14 15:42 51.04453 0.12143 4290 ft 247 kts 355°
2026-04-14 15:43 51.06157 0.12032 4075 ft 243 kts 355°
2026-04-14 15:43 51.07846 0.11915 4023 ft 244 kts 353°
2026-04-14 15:43 51.09539 0.11563 4003 ft 246 kts 346°
2026-04-14 15:43 51.11219 0.11036 3990 ft 245 kts 345°
2026-04-14 15:44 51.12881 0.10493 3774 ft 242 kts 345°
2026-04-14 15:44 51.14501 0.09955 3541 ft 232 kts 342°
2026-04-14 15:44 51.15819 0.08727 3245 ft 214 kts 302°
2026-04-14 15:44 51.16377 0.06656 3104 ft 199 kts 279°
2026-04-14 15:45 51.16697 0.04500 3059 ft 201 kts 277°
2026-04-14 15:45 51.16998 0.02373 3011 ft 192 kts 277°
2026-04-14 15:45 51.17222 0.00345 2986 ft 181 kts 264°
2026-04-14 15:45 51.17100 -0.01609 3020 ft 175 kts 258°
2026-04-14 15:46 51.16938 -0.03506 3008 ft 169 kts 254°
2026-04-14 15:46 51.16708 -0.05276 2983 ft 156 kts 251°
2026-04-14 15:46 51.16486 -0.06884 2934 ft 143 kts 251°
2026-04-14 15:46 51.16291 -0.08471 2465 ft 149 kts 252°
2026-04-14 15:47 51.16137 -0.09559 2034 ft 154 kts 249°
2026-04-14 15:47 51.15901 -0.11229 1448 ft 155 kts 251°
2026-04-14 15:47 51.15658 -0.12857 956 ft 148 kts 253°
2026-04-14 15:47 51.15458 -0.14388 652 ft 131 kts 251°
2026-04-14 15:48 51.15253 -0.15810 369 ft 133 kts 252°
2026-04-14 15:48 51.14986 -0.17735 218 ft 128 kts 256°
2026-04-14 15:48 51.14877 -0.18534 214 ft 85 kts 257°
2026-04-14 15:48 51.14808 -0.19069 214 ft 39 kts 263°
2026-04-14 15:49 51.14840 -0.19377 218 ft 2 kts 287°
2026-04-14 15:50 51.14843 -0.19392 218 ft 7 kts 287°
2026-04-14 15:50 51.14899 -0.19529 221 ft 21 kts 295°
2026-04-14 15:50 51.14880 -0.19841 218 ft 37 kts 257°
2026-04-14 15:50 51.14826 -0.20225 218 ft 41 kts 259°
2026-04-14 15:51 51.14791 -0.20500 214 ft 18 kts 258°
2026-04-14 15:51 51.14781 -0.20578 212 ft 4 kts 263°
2026-04-14 15:51 51.14800 -0.20616 213 ft 10 kts 326°
2026-04-14 15:51 51.14857 -0.20597 219 ft 12 kts 46°
2026-04-14 15:52 51.14894 -0.20418 214 ft 24 kts 78°
2026-04-14 15:52 51.14934 -0.20111 214 ft 35 kts 78°
2026-04-14 15:52 51.14981 -0.19777 215 ft 26 kts 77°
2026-04-14 15:52 51.15011 -0.19564 214 ft 10 kts 77°
2026-04-14 15:53 51.15039 -0.19359 217 ft 27 kts 78°
2026-04-14 15:53 51.15091 -0.18977 216 ft 43 kts 78°
2026-04-14 15:53 51.15149 -0.18544 213 ft 33 kts 78°
2026-04-14 15:53 51.15184 -0.18268 216 ft 28 kts 79°
2026-04-14 15:54 51.15268 -0.17650 215 ft 12 kts 78°
2026-04-14 15:54 51.15285 -0.17523 209 ft 0 kts 78°
2026-04-14 15:54 51.15286 -0.17522 209 ft 0 kts 78°
2026-04-14 15:55 51.15291 -0.17483 219 ft 11 kts 78°
2026-04-14 15:55 51.15307 -0.17289 216 ft 24 kts 80°
2026-04-14 15:56 51.15350 -0.16974 212 ft 34 kts 78°
2026-04-14 15:56 51.15392 -0.16677 214 ft 21 kts 77°
2026-04-14 15:56 51.15413 -0.16550 217 ft 0 kts 65°
2026-04-14 15:56 51.15419 -0.16538 220 ft 3 kts 52°
2026-04-14 15:57 51.15430 -0.16499 219 ft 5 kts 72°
2026-04-14 15:57 51.15437 -0.16458 214 ft 1 kts 77°
2026-04-14 15:57 51.15439 -0.16448 212 ft 0 kts 77°
2026-04-14 15:57 51.15439 -0.16442 211 ft 2 kts 77°
2026-04-14 15:58 51.15440 -0.16435 210 ft 0 kts 77°